GSAT0203 (GALILEO 7) (40544 NORAD) Tracking and Keplerian Element Data

This shows tracking and keplerian element data for the satellite.

Feedback or suggestion? Click here.




ElementValue
Catalog40544
NameGSAT0203 (GALILEO 7)
Epoch Orbit4601
Epoch Day268.92458413
Epoch Year2022
RAAN18.6299
Inclination56.8264
Eccentricity0.0003502
Argument of Perigee223.4653
Mean Anonmoly136.5171
Mean Motion1.70476364
Decay Rate-7.7E-07
L11 40544U 15017A 22268.92458413 -.00000077 00000+0 00000+0 0 9990
L22 40544 56.8264 18.6299 0003502 223.4653 136.5171 1.70476364 46013

Live tracking and technical data element details for GSAT0203 (GALILEO 7) (NORAD 40544). GSAT0203 (GALILEO 7) can be tracked NOW for your location showing map with azimuth and elevation plus other details from your city location.

Track the satellite on the map from your city or location and see movement details for azimuth, elevation, latitude, longitude, range, height, and movement on the map or in text.







IsCatalogInMostPopularTable: catalog: 40544, numindb: 641
Update: records affected: 1



GetName: 40544 GSAT0203 (GALILEO 7)

Hit Count: updated at: Wed, 28 Sep 2022 22:19:05 GMT